Regional Weather Roundup
Issued by NWS

Home | Current Version | Previous Version | Text Only | Print | Product List | Glossary On
Versions: 1 2 3 4 5 6 7 8 9 10 11 12 13 14 15 16 17 18 19 20 21 22 23 24 25 26 27 28 29 30 31 32 33 34 35 36 37 38 39 40 41 42 43 44 45 46 47 48 49 50
310
ASUS43 KMKX 111720
RWRWI

WISCONSIN REGIONAL WEATHER ROUNDUP
NATIONAL WEATHER SERVICE MILWAUKEE/SULLIVAN WI
1100 AM CST MON DEC 11 2017

NOTE: "FAIR" INDICATES FEW OR NO CLOUDS BELOW 12,000 FEET WITH NO
SIGNIFICANT WEATHER AND/OR OBSTRUCTIONS TO VISIBILITY.

WIZ001-002-006>008-014>016-023>028-111800-
NORTHWEST WISCONSIN

CITY           SKY/WX    TMP DP  RH WIND       PRES   REMARKS
SUPERIOR ARPT  CLOUDY    26  24  93 SW3       29.79R
ASHLAND        CLOUDY    23  20  88 CALM      29.77S
HAYWARD        LGT SNOW  26  22  84 CALM      29.74S FOG
SIREN          LGT SNOW  28  26  93 NW5       29.76R WCI  23
CUMBERLAND     CLOUDY    27  23  86 CALM      29.73S FOG
RICE LAKE      CLOUDY    27  24  88 CALM      29.76S
CHETEK         CLOUDY    27  24  89 CALM      29.74S
LADYSMITH      CLOUDY    26  24  91 CALM      29.75S
EAU CLAIRE     CLOUDY    28  24  85 CALM      29.74R FOG
MENOMONIE      LGT SNOW  28  26  89 CALM      29.74S
NEW RICHMOND   CLOUDY    30  28  90 N3        29.75R FOG
OSCEOLA        CLOUDY    30  30 100 NW3       29.79R
$$

WIZ003>005-009-010-017-018-111800-
NORTH CENTRAL WISCONSIN

CITY           SKY/WX    TMP DP  RH WIND       PRES   REMARKS
MANITOWISH WTR LGT SNOW  20  20 100 SW5       29.71R WCI  14
ARBOR VITAE    CLOUDY    22  21  94 SW5       29.71S FOG     WCI  16
WOODRUFF       CLOUDY    22  21  94 SW5       29.71S FOG     WCI  16
RHINELANDER    CLOUDY    22  20  92 SW5       29.72S FOG     WCI  16
EAGLE RIVER    LGT SNOW  20  19  98 CALM      29.70F
LAND O LAKES   LGT SNOW  21  18  88 S3        29.71F
PHILLIPS       CLOUDY    22  21  98 S3        29.71S
TOMAHAWK       CLOUDY    21  19  93 CALM      29.73R FOG
MEDFORD        CLOUDY    23  21  93 S3        29.70S FOG
MERRILL        CLOUDY    23  22  95 CALM      29.73F
$$

WIZ029-030-035-036-043>047-111800-
CENTRAL WISCONSIN

CITY           SKY/WX    TMP DP  RH WIND       PRES   REMARKS
WAUSAU         CLOUDY    23  21  92 SE5       29.72F WCI  17
MOSINEE        CLOUDY    23  23 100 SE5       29.74F FOG     WCI  17
MARSHFIELD     CLOUDY    25  22  88 S5        29.71F WCI  19
STEVENS POINT  CLOUDY    23  23  99 S5        29.74F WCI  17
WAUPACA        CLOUDY    27  24  85 SE3       29.76F
WAUTOMA        CLOUDY    28  23  81 S5        29.75F WCI  23
WISC RAPIDS    CLOUDY    27  23  85 SW6       29.74F WCI  20
CAMP DOUGLAS   CLOUDY    28  23  80 SE5       29.73F WCI  23
$$

WIZ011>013-019>022-031-037>040-048>050-111800-
NORTHEAST WISCONSIN

CITY           SKY/WX    TMP DP  RH WIND       PRES   REMARKS
ANTIGO         CLOUDY    20  20  98 S6        29.72F WCI  12
SHAWANO        CLOUDY    26  23  90 S3        29.77F
OCONTO         CLOUDY    24  22  91 S6        29.79F WCI  17
STURGEON BAY   LGT SNOW  25  22  88 S8        29.79F FOG     WCI  16
GREEN BAY      CLOUDY    25  24  96 S7        29.78F WCI  17
MANITOWOC      CLOUDY    26  23  88 S6        29.80F WCI  19
APPLETON       CLOUDY    25  21  86 S9        29.75F WCI  15
CLINTONVILLE   NOT AVBL
OSHKOSH        CLOUDY    27  23  85 S9        29.76F WCI  18
$$

WIZ032>034-041-042-053>061-111800-
SOUTHWEST WISCONSIN

CITY           SKY/WX    TMP DP  RH WIND       PRES   REMARKS
LA CROSSE      SNOW      29  26  89 CALM      29.74S VSB 1/2
SPARTA         LGT SNOW  28  26  89 CALM      29.74F
VIROQUA        CLOUDY    28  26  94 S3        29.71S
BOSCOBEL       CLOUDY    31  24  75 CALM      29.74F
PRAIRIE DU CHI CLOUDY    32  24  72 E5        29.73F WCI  27
PLATTEVILLE    CLOUDY    32  28  83 SE7       29.71F WCI  26
$$

WIZ056-057-062-063-064-067-068-111800-
SOUTH CENTRAL WISCONSIN

CITY           SKY/WX    TMP DP  RH WIND       PRES   REMARKS
REEDSBURG      CLOUDY    29  24  81 SW3       29.72F
BARABOO/DELLS  CLOUDY    30  24  78 S5        29.72F WCI  25
LONE ROCK      CLOUDY    29  25  85 E7        29.73F FOG     WCI  22
MINERAL POINT  CLOUDY    32  30  93 SE8       29.70F WCI  25
MADISON        FLURRIES  29  24  82 S12       29.74F WCI  19
MIDDLETON      CLOUDY    32  26  79 SE7       29.73F WCI  25
WATERTOWN      MOSUNNY   31  26  80 SE6       29.75F WCI  25
MONROE         CLOUDY    32  27  80 SE7       29.72F WCI  26
JANESVILLE     CLOUDY    34  25  69 SE8       29.75F WCI  27
$$

WIZ051-052-058>065-066-070>072-111800-
SOUTHEAST WISCONSIN

CITY           SKY/WX    TMP DP  RH WIND       PRES   REMARKS
MILWAUKEE      PTSUNNY   31  25  78 S7        29.79F WCI  24
WAUKESHA       MOSUNNY   27  21  80 S8        29.79F WCI  18
MILWAUKEE/TIMM CLOUDY    28  21  74 S7        29.81F WCI  21
RACINE         MOSUNNY   31  24  75 S7        29.81F WCI  24
BURLINGTON     CLOUDY    38  35  88 SE7       29.76F WCI  33
KENOSHA        CLOUDY    32  23  69 S9        29.79F WCI  24
FOND DU LAC    CLOUDY    29  22  75 S8        29.76F WCI  21
SHEBOYGAN      CLOUDY    26  23  88 S9        29.78F WCI  17
WEST BEND      CLOUDY    28  25  86 S8        29.77F WCI  20
JUNEAU         CLOUDY    28  23  81 SE10      29.76F WCI  18
$$

LSZ147-162-111800-
LAKE SUPERIOR

STATION/POSITION TIME  TEMP    WIND        PRES    WAVE
                       AIR SEA DIR/SP/G            HT/PER
                 (UTC) (F)     (DEG/KT/KT) (MB)    (FT/S)
DEVILS ISLAND    1700   27     250/ 10/ 13 1008.6S
SAXON HARBOR     1640   25                 1007.8R
$$

LMZ867-665-643>646-111800-
LAKE MICHIGAN

STATION/POSITION TIME  TEMP    WIND        PRES    WAVE
                       AIR SEA DIR/SP/G            HT/PER
                 (UTC) (F)     (DEG/KT/KT) (MB)    (FT/S)
NORTHPORT PIER   1640   24     210/  3/  7 1009.5F
KEWAUNEE LAKESHO 1654   26     200/  7/  9 1008.5F
SHEBOYGAN LAKESH 1700   29     190/ 12/ 14 1009.2F
PORT WASHINGTON  1700   30     180/  9/ 13 1009.5
MILWAUKEE LAKESH 1700   30     170/  8/  9   N/A
KENOSHA   LAKESH 1700   31     170/  9/ 12 1008.8
$$

TC  - TEMPERATURE IN CELSIUS
VSB - VISIBILITY IN STATUTE MILES
WCI - WIND CHILL INDEX
HX  - HEAT INDEX





USA.gov is the U.S. government's official web portal to all federal, state and local government web resources and services.